SR2ST-13 Weather Reports


time (UTC)temp
C
wind
direction
speed
KPH
gust
KPH
rain 1hr
cm
rain 24hr
cm
rain mn
cm
humidity
%
barometer
mb
20260905211416 11 101 0.0 4.8 0.00 1.37 0.79 95 1014.6
20260905210416 11 103 0.0 4.8 0.00 1.37 0.79 96 1014.7
20260905205416 11 105 0.0 4.8 0.00 1.37 0.79 96 1014.7
20260905204347 11 105 0.0 4.8 0.00 1.37 0.79 96 1014.8
20260905203346 11 105 0.0 3.2 0.00 1.37 0.79 96 1014.6
20260905202346 11 104 0.0 4.8 0.00 1.37 0.79 97 1014.4
20260905201316 11 103 0.0 6.4 0.00 1.37 0.79 96 1014.4
20260905200316 11 126 0.0 4.8 0.00 1.37 0.79 97 1014.5
20260905195246 11 111 0.0 3.2 0.00 1.37 0.79 97 1014.3
20260905194246 11 103 0.0 4.8 0.00 1.37 0.79 97 1014.4
20260905193246 11 106 0.0 9.7 0.00 1.37 0.79 97 1014.1
20260905192246 11 112 0.0 3.2 0.00 1.37 0.79 97 1014.0
20260905191246 11 111 0.0 9.7 0.00 1.37 0.79 96 1013.9
20260905190246 12 104 1.6 9.7 0.00 1.37 0.79 96 1014.1
20260905185246 12 104 1.6 9.7 0.00 1.37 0.79 95 1014.1
20260905184216 11 97 0.0 4.8 0.00 1.37 0.79 96 1013.7
20260905183146 11 90 0.0 4.8 0.00 1.37 0.79 96 1013.8
20260905182146 12 105 0.0 3.2 0.00 1.37 0.79 96 1013.8
20260905181146 12 107 0.0 6.4 0.00 1.37 0.79 96 1013.8
20260905180116 12 106 0.0 4.8 0.03 1.37 0.79 97 1013.4
20260905175116 12 112 0.0 4.8 0.05 1.37 0.79 96 1013.5
20260905174116 12 100 0.0 6.4 0.13 1.37 0.79 96 1013.3
20260905173046 12 106 0.0 4.8 0.28 1.37 0.79 96 1013.3
20260905172045 12 112 0.0 4.8 0.28 1.37 0.79 95 1012.9
20260905171046 12 111 0.0 3.2 0.30 1.37 0.79 96 1013.2
20260905170046 12 101 0.0 6.4 0.41 1.35 0.76 95 1012.9
20260905165045 12 117 1.6 6.4 0.46 1.27 0.71 96 1013.1
20260905164046 12 98 1.6 6.4 0.53 1.45 0.64 95 1013.2
20260905163046 12 112 0.0 4.8 0.38 1.40 0.51 95 1013.3
20260905162045 13 117 0.0 3.2 0.38 1.40 0.51 95 1013.0
20260905161046 13 113 0.0 4.8 0.30 1.35 0.43 93 1012.9
20260905155045 15 113 3.2 17.7 0.10 1.12 0.23 84 1013.1
20260905154046 17 117 0.0 4.8 0.00 1.02 0.10 71 1012.5
20260905153015 17 98 1.6 9.7 0.00 1.02 0.10 70 1012.4
20260905152016 17 100 3.2 12.9 0.00 1.02 0.10 68 1012.1
20260905151015 17 106 3.2 27.4 0.00 1.02 0.10 67 1012.2
20260905150015 18 116 4.8 17.7 0.00 1.02 0.10 65 1012.2
20260905145017 18 117 3.2 16.1 0.00 1.02 0.10 65 1012.1
20260905144015 17 97 3.2 12.9 0.00 1.02 0.10 69 1011.9
20260905143015 16 109 3.2 16.1 0.00 1.02 0.10 76 1011.9
20260905141945 17 99 4.8 17.7 0.00 1.02 0.10 71 1011.8
20260905140946 18 115 4.8 17.7 0.00 1.02 0.10 62 1011.5
20260905135946 18 102 6.4 20.9 0.00 1.02 0.10 64 1011.5
20260905134945 20 94 4.8 16.1 0.00 1.02 0.10 59 1011.6
20260905133915 20 91 6.4 24.1 0.00 1.02 0.10 57 1011.6
20260905132915 20 102 4.8 17.7 0.00 1.02 0.10 59 1011.6
20260905130915 20 94 3.2 16.1 0.00 1.02 0.10 62 1011.2
20260905125915 20 105 3.2 17.7 0.00 1.02 0.10 65 1011.2
20260905124916 19 106 3.2 14.5 0.00 1.02 0.10 62 1011.4
20260905123915 20 123 4.8 17.7 0.00 1.02 0.10 60 1011.4
20260905121915 20 107 3.2 16.1 0.00 1.02 0.10 59 1011.6
20260905120915 20 103 3.2 16.1 0.00 1.02 0.10 58 1011.7
20260905115845 19 110 3.2 12.9 0.00 1.02 0.10 58 1011.5
20260905114815 20 96 4.8 19.3 0.00 1.02 0.10 58 1011.3
20260905113745 20 113 3.2 12.9 0.00 1.02 0.10 55 1011.3
20260905112715 19 101 3.2 12.9 0.00 1.02 0.10 59 1011.7
20260905111645 19 110 4.8 17.7 0.00 1.02 0.10 59 1011.6
20260905110645 19 101 4.8 16.1 0.00 1.02 0.10 59 1011.6
20260905105646 19 104 3.2 14.5 0.00 1.02 0.10 60 1011.7
20260905104615 18 92 3.2 9.7 0.00 1.02 0.10 64 1011.5
20260905103545 17 103 3.2 19.3 0.00 1.02 0.10 65 1011.7
20260905102515 17 147 3.2 12.9 0.00 1.02 0.10 64 1011.8
20260905101445 17 145 3.2 16.1 0.00 1.02 0.10 65 1011.6
20260905100445 17 99 3.2 12.9 0.00 1.02 0.10 64 1011.5
20260905095345 18 123 4.8 27.4 0.00 1.02 0.10 61 1011.3
20260905094345 18 127 4.8 24.1 0.00 1.02 0.10 59 1011.4
20260905093315 17 107 3.2 14.5 0.00 1.02 0.10 64 1011.6
20260905092315 18 111 4.8 20.9 0.00 1.02 0.10 63 1011.3
20260905091315 18 105 4.8 17.7 0.00 1.02 0.10 62 1011.1
20260905090245 18 99 4.8 16.1 0.00 1.02 0.10 64 1011.2
20260905085245 17 111 4.8 19.3 0.00 1.02 0.10 66 1011.0
20260905084246 17 127 3.2 9.7 0.00 1.02 0.10 67 1010.8
20260905083245 17 132 3.2 12.9 0.00 1.02 0.10 67 1011.0
20260905082215 17 108 3.2 16.1 0.00 1.02 0.10 65 1010.7
20260905081215 17 108 3.2 16.1 0.00 1.02 0.10 67 1010.6
20260905080215 17 127 6.4 24.1 0.00 1.02 0.10 66 1010.4
20260905075215 16 122 6.4 20.9 0.00 1.02 0.10 68 1010.4
20260905074216 17 110 6.4 27.4 0.00 1.02 0.10 68 1010.2
20260905073215 16 112 4.8 27.4 0.00 1.02 0.10 71 1010.1
20260905072215 17 131 3.2 14.5 0.00 1.02 0.10 72 1010.0
20260905071145 16 114 3.2 16.1 0.00 1.02 0.10 74 1009.9
20260905070145 16 115 4.8 16.1 0.00 1.02 0.10 76 1009.9
20260905065145 16 103 3.2 16.1 0.00 1.02 0.10 77 1009.7
20260905064145 16 107 3.2 12.9 0.00 1.02 0.10 77 1009.5
20260905063145 16 96 3.2 16.1 0.00 1.02 0.10 79 1009.3
20260905062145 16 90 3.2 14.5 0.00 1.02 0.10 78 1009.4
20260905061145 15 106 1.6 9.7 0.00 1.02 0.10 80 1009.2
20260905060145 15 122 3.2 12.9 0.00 1.02 0.10 82 1009.3
20260905055145 15 98 4.8 17.7 0.00 1.02 0.10 83 1009.1
20260905054145 15 95 3.2 12.9 0.00 1.02 0.10 84 1009.1
20260905053115 15 111 1.6 9.7 0.00 1.02 0.10 84 1009.0
20260905052115 14 122 1.6 14.5 0.00 1.02 0.10 85 1008.8
20260905051045 13 107 1.6 12.9 0.00 1.02 0.10 86 1008.8
20260905050045 13 125 1.6 12.9 0.00 1.02 0.10 87 1008.8
20260905045045 13 121 1.6 9.7 0.00 1.02 0.10 86 1008.6
20260905043045 13 113 1.6 9.7 0.00 1.02 0.10 88 1008.1
20260905042045 13 108 1.6 9.7 0.00 1.02 0.10 87 1008.2
20260905041045 13 105 1.6 9.7 0.00 1.02 0.10 87 1007.9
20260905035045 13 111 1.6 9.7 0.00 1.02 0.10 87 1007.5
20260905034046 13 117 1.6 9.7 0.00 1.02 0.10 87 1007.8
20260905033045 13 102 1.6 6.4 0.00 1.02 0.10 86 1007.8
20260905032045 13 105 3.2 12.9 0.00 1.02 0.10 86 1007.5
20260905031015 13 118 1.6 14.5 0.00 1.02 0.10 86 1007.9
20260905030015 13 111 1.6 9.7 0.00 1.02 0.10 86 1007.6
20260905025015 13 104 1.6 12.9 0.00 1.02 0.10 85 1007.5
20260905023945 13 103 3.2 14.5 0.00 1.02 0.10 86 1007.4
20260905022945 13 105 3.2 17.7 0.00 1.02 0.10 87 1007.4
20260905021915 13 106 1.6 9.7 0.00 1.02 0.10 89 1007.3
20260905020915 13 125 1.6 4.8 0.00 1.02 0.10 88 1006.8
20260905015845 14 121 1.6 9.7 0.00 1.02 0.10 86 1006.8
20260905014845 14 114 1.6 14.5 0.00 1.02 0.10 83 1006.8
20260905013845 14 125 1.6 9.7 0.00 1.02 0.10 82 1006.4
20260905012815 15 128 3.2 12.9 0.00 1.02 0.10 82 1006.6
20260905011815 15 115 3.2 14.5 0.00 1.02 0.10 82 1006.8
20260905010745 15 119 3.2 17.7 0.00 1.02 0.10 82 1006.6
20260905005745 15 122 3.2 17.7 0.00 1.02 0.10 83 1006.3
20260905004745 15 127 1.6 9.7 0.00 1.02 0.10 86 1006.1
20260905003716 15 146 1.6 9.7 0.00 1.02 0.10 88 1005.7
20260905002645 15 109 3.2 14.5 0.00 1.02 0.10 86 1006.0
20260905001645 15 113 1.6 14.5 0.00 1.02 0.10 87 1005.8
20260905000615 15 122 1.6 9.7 0.00 1.02 0.10 87 1005.6
20260904235545 15 118 3.2 12.9 0.00 1.02 0.10 90 1005.1
20260904234545 15 152 1.6 6.4 0.00 1.02 0.10 94 1004.9
20260904233545 15 107 1.6 4.8 0.00 1.02 0.10 94 1005.0
20260904232545 15 103 0.0 6.4 0.00 1.02 0.10 94 1005.0
20260904231545 15 105 1.6 9.7 0.00 1.02 0.10 93 1004.9
20260904230545 15 137 3.2 17.7 0.03 1.02 0.10 92 1004.6
20260904225545 16 161 3.2 17.7 0.23 1.02 0.10 91 1004.5
20260904224545 16 111 3.2 9.7 0.41 1.02 0.10 94 1004.5
20260904223545 16 107 3.2 9.7 0.64 1.02 0.10 95 1004.5
20260904222545 16 113 1.6 9.7 0.69 1.02 0.10 96 1004.2
20260904221545 16 115 3.2 16.1 0.69 1.02 0.10 95 1004.0
20260904220545 16 111 3.2 14.5 0.64 0.97 0.08 96 1003.9
20260904215545 16 99 1.6 14.5 0.43 0.76 0.76 96 1003.6
20260904214545 16 102 0.0 4.8 0.25 0.58 0.58 96 1003.6
20260904213545 16 112 0.0 3.2 0.03 0.36 0.36 93 1003.2
20260904212545 16 112 0.0 3.2 0.00 0.30 0.30 93 1003.3